Istres, France

5:13 AM CET on November 22, 2017 (GMT +0100)
Le Tube Air Base

Weather History for LFMI - September, 2013

Change the Weather History Date:

Tuesday, September 17, 2013

  Actual Average (LFML) Record (LFML)
Temperature  
Mean Temperature 63 °F -  
Max Temperature 69 °F 75 °F 84 °F (2014)
Min Temperature 57 °F 58 °F 48 °F (2008)
Degree Days  
Heating Degree Days 2    
Growing Degree Days 13 (Base 50)    
Moisture  
Dew Point 44 °F    
Average Humidity 49    
Maximum Humidity 63    
Minimum Humidity 35    
Precipitation  
Precipitation 0.00 in - - ()
Sea Level Pressure  
Sea Level Pressure 29.85 in    
Wind  
Wind Speed 15 mph ()    
Max Wind Speed 26 mph    
Max Gust Speed -    
Visibility 6.2 miles    
Events      
Averages and records for this station are not official NWS values.
T = Trace of Precipitation, MM = Missing Value Source: Averaged Metar Reports

Daily Weather History Graph

Daily Weather History Graph

Search for Another Location

Airport or City:

Trip Planner

Search our weather history database for the weather conditions in past years. The results will help you decide how hot, cold, wet, or windy it might be!

Date:

Astronomy

Sep. 17, 2013 Rise Set
Actual Time 7:21 AM CEST 7:46 PM CEST
Civil Twilight 6:53 AM CEST 8:15 PM CEST
Nautical Twilight 6:19 AM CEST 8:49 PM CEST
Astronomical Twilight 5:44 AM CEST 9:23 PM CEST
Moon 6:26 PM CEST (9/17) 4:55 AM CEST (9/17)
Length of Visible Light 13h 22m
Length of Day
12h 24m
Waxing Gibbous, 94% of the Moon is Illuminated
Sep 17
Waxing Gibbous
Sep 19
Full
Sep 27
Last Quarter
Oct 5
New
Oct 12
First Quarter

Hourly Weather History & Observations

Time (CEST) Temp. Dew Point Humidity Pressure Visibility Wind Dir Wind Speed Gust Speed Precip Events Conditions
12:00 AM 64.4 °F 50.0 °F 59% 29.80 in 6.2 mi WNW 16.1 mph - N/A   Unknown
12:30 AM 64.4 °F 48.2 °F 56% 29.80 in 6.2 mi WNW 18.4 mph - N/A   Unknown
1:00 AM 64.4 °F 44.6 °F 49% 29.80 in 6.2 mi NW 17.3 mph - N/A   Unknown
1:30 AM 64.4 °F 44.6 °F 49% 29.80 in 6.2 mi NW 19.6 mph - N/A   Unknown
2:00 AM 62.6 °F 44.6 °F 52% 29.80 in 6.2 mi NW 26.5 mph - N/A   Unknown
2:30 AM 62.6 °F 44.6 °F 52% 29.80 in 6.2 mi NW 19.6 mph - N/A   Unknown
3:00 AM 62.6 °F 42.8 °F 48% 29.83 in 6.2 mi NW 20.7 mph - N/A   Unknown
3:30 AM 60.8 °F 42.8 °F 52% 29.80 in 6.2 mi NW 15.0 mph - N/A   Unknown
4:00 AM 60.8 °F 44.6 °F 55% 29.80 in 6.2 mi WNW 21.9 mph - N/A   Unknown
4:30 AM 60.8 °F 44.6 °F 55% 29.80 in 6.2 mi WNW 17.3 mph - N/A   Unknown
5:00 AM 59.0 °F 46.4 °F 63% 29.80 in 6.2 mi NNW 13.8 mph - N/A   Unknown
5:30 AM 59.0 °F 44.6 °F 59% 29.83 in 6.2 mi WNW 15.0 mph - N/A   Unknown
6:00 AM 59.0 °F 44.6 °F 59% 29.83 in 6.2 mi WNW 16.1 mph - N/A   Unknown
6:30 AM 59.0 °F 42.8 °F 55% 29.83 in 6.2 mi West 15.0 mph - N/A   Unknown
7:00 AM 57.2 °F 42.8 °F 59% 29.83 in 6.2 mi West 8.1 mph - N/A   Unknown
7:30 AM 57.2 °F 42.8 °F 59% 29.86 in 6.2 mi WNW 8.1 mph - N/A   Unknown
8:00 AM 59.0 °F 42.8 °F 55% 29.86 in 6.2 mi WNW 10.4 mph - N/A   Unknown
8:30 AM 59.0 °F 42.8 °F 55% 29.86 in 6.2 mi NW 11.5 mph - N/A   Unknown
9:00 AM 59.0 °F 44.6 °F 59% 29.89 in 6.2 mi NNW 16.1 mph - N/A   Unknown
9:30 AM 59.0 °F 44.6 °F 59% 29.89 in 6.2 mi NNW 18.4 mph - N/A   Unknown
10:00 AM 60.8 °F 42.8 °F 52% 29.89 in 6.2 mi NNW 18.4 mph - N/A   Unknown
10:30 AM 60.8 °F 42.8 °F 52% 29.89 in 6.2 mi NNW 20.7 mph - N/A   Unknown
11:00 AM 62.6 °F 42.8 °F 48% 29.89 in 6.2 mi NNW 20.7 mph - N/A   Unknown
11:30 AM 64.4 °F 42.8 °F 45% 29.89 in 6.2 mi NNW 18.4 mph - N/A   Unknown
12:00 PM 66.2 °F 42.8 °F 43% 29.89 in 6.2 mi NNW 17.3 mph - N/A   Unknown
12:30 PM 68.0 °F 44.6 °F 43% 29.89 in 6.2 mi NNW 18.4 mph - N/A   Unknown
1:00 PM 68.0 °F 44.6 °F 43% 29.86 in 6.2 mi NNW 12.7 mph - N/A   Unknown
1:30 PM 68.0 °F 41.0 °F 37% 29.86 in 6.2 mi North 18.4 mph - N/A   Unknown
2:00 PM 68.0 °F 41.0 °F 37% 29.86 in 6.2 mi North 19.6 mph - N/A   Unknown
2:30 PM 69.8 °F 42.8 °F 38% 29.86 in 6.2 mi North 17.3 mph - N/A   Unknown
3:00 PM 69.8 °F 42.8 °F 38% 29.86 in 6.2 mi North 18.4 mph - N/A   Unknown
3:30 PM 69.8 °F 42.8 °F 38% 29.86 in 6.2 mi North 17.3 mph - N/A   Unknown
4:00 PM 69.8 °F 41.0 °F 35% 29.83 in 6.2 mi North 15.0 mph - N/A   Unknown
4:30 PM 69.8 °F 42.8 °F 38% 29.83 in 6.2 mi North 16.1 mph - N/A   Unknown
5:00 PM 69.8 °F 42.8 °F 38% 29.83 in 6.2 mi North 13.8 mph - N/A   Unknown
5:30 PM 69.8 °F 42.8 °F 38% 29.83 in 6.2 mi North 13.8 mph - N/A   Unknown
6:00 PM 69.8 °F 42.8 °F 38% 29.83 in 6.2 mi North 15.0 mph - N/A   Unknown
6:30 PM 69.8 °F 42.8 °F 38% 29.83 in 6.2 mi NNW 16.1 mph - N/A   Unknown
7:00 PM 68.0 °F 42.8 °F 40% 29.86 in 6.2 mi NNW 11.5 mph - N/A   Unknown
7:30 PM 66.2 °F 42.8 °F 43% 29.86 in 6.2 mi NNW 9.2 mph - N/A   Unknown
8:00 PM 64.4 °F 42.8 °F 45% 29.86 in 6.2 mi NNW 6.9 mph - N/A   Unknown
8:30 PM 62.6 °F 44.6 °F 52% 29.89 in 6.2 mi NNW 6.9 mph - N/A   Unknown
9:00 PM 60.8 °F 44.6 °F 55% 29.89 in 6.2 mi NW 6.9 mph - N/A   Unknown
9:30 PM 60.8 °F 44.6 °F 55% 29.89 in 6.2 mi WNW 8.1 mph - N/A   Unknown
10:00 PM 60.8 °F 44.6 °F 55% 29.89 in 6.2 mi NW 9.2 mph - N/A   Unknown
10:30 PM 60.8 °F 44.6 °F 55% 29.89 in 6.2 mi WNW 9.2 mph - N/A   Unknown
11:00 PM 59.0 °F 46.4 °F 63% 29.89 in 6.2 mi WNW 6.9 mph - N/A   Unknown
11:30 PM 59.0 °F 46.4 °F 63% 29.89 in 6.2 mi WNW 5.8 mph - N/A   Unknown